Hourly Data Report for September 22, 2003

TORONTO CITY
ONTARIO

43°40'00.000" N
79°24'00.000" W
112.50 m
6158355
71508
XTO

Download Data

Hourly Data (September 2003)
Hourly Data Report for September 22, 2003
TIME
LST
Temp Definition
°C
Dew Point Definition
°C
Rel Hum Definition
%
Precip. Amount Definition
mm

Wind Dir Definition
10's deg

Wind Spd Definition
km/h
Visibility Definition
km
Stn Press Definition
kPa
Hmdx Definition


Wind Chill Definition


Weather Definition


00:00 16.5 12.7 78   LegendMM LegendMM LegendMM 100.79     LegendNANA
01:00 16.7 12.4 76   LegendMM LegendMM LegendMM 100.70     LegendNANA
02:00 16.5 12.9 79   LegendMM LegendMM LegendMM 100.63     LegendNANA
03:00 16.4 12.8 79   LegendMM LegendMM LegendMM 100.54     LegendNANA
04:00 16.3 13.3 82   LegendMM LegendMM LegendMM 100.43     LegendNANA
05:00 16.0 13.6 86   LegendMM LegendMM LegendMM 100.41     LegendNANA
06:00 15.6 13.6 88   LegendMM LegendMM LegendMM 100.36     LegendNANA
07:00 15.8 13.9 88   LegendMM LegendMM LegendMM 100.26     LegendNANA
08:00 16.3 14.4 89   LegendMM LegendMM LegendMM 100.20     LegendNANA
09:00 16.4 14.7 90   LegendMM LegendMM LegendMM 100.06     LegendNANA
10:00 16.7 15.2 91   LegendMM LegendMM LegendMM 100.00     LegendNANA
11:00 16.7 15.9 95   LegendMM LegendMM LegendMM 99.89     LegendNANA
12:00 17.4 16.6 95   LegendMM LegendMM LegendMM 99.80     LegendNANA
13:00 18.3 17.2 93   LegendMM LegendMM LegendMM 99.67     LegendNANA
14:00 18.0 17.4 96   LegendMM LegendMM LegendMM 99.52     LegendNANA
15:00 18.0 17.5 97   LegendMM LegendMM LegendMM 99.37     LegendNANA
16:00 18.0 17.5 97   LegendMM LegendMM LegendMM 99.16     LegendNANA
17:00 17.6 17.1 97   LegendMM LegendMM LegendMM 99.02     LegendNANA
18:00 17.7 17.3 98   LegendMM LegendMM LegendMM 98.91     LegendNANA
19:00 18.8 18.5 98   LegendMM LegendMM LegendMM 98.83     LegendNANA
20:00 19.0 18.7 98   LegendMM LegendMM LegendMM 98.86     LegendNANA
21:00 18.9 16.3 85   LegendMM LegendMM LegendMM 98.99     LegendNANA
22:00 18.3 15.8 85   LegendMM LegendMM LegendMM 99.04     LegendNANA
23:00 17.8 15.3 85   LegendMM LegendMM LegendMM 99.10     LegendNANA

Notes on Data Quality.

Legend

  • E = Estimated
  • M = Missing
  • NA = Not Available*
  • [empty] = Indicates an unobserved value
Date modified: